K6OUA-11 Weather Reports


Display with metric or nautical units.
time (UTC)temp
F
wind
direction
speed
MPH
gust
MPH
rain 1hr
in
rain 24hr
in
rain mn
in
humidity
%
barometer
mb
20260504231828 64 261 8.0 19.0 0.00 0.00 0.00 58
20260504231626 64 261 7.0 16.0 0.00 0.00 0.00 59
20260504231422 64 264 12.0 16.0 0.00 0.00 0.00 58
20260504231222 64 257 8.0 14.0 0.00 0.00 0.00 58
20260504231020 64 243 11.0 14.0 0.00 0.00 0.00 58
20260504230818 66 255 9.0 10.0 0.00 0.00 0.00 57
20260504230614 65 161 2.0 10.0 0.00 0.00 0.00 58
20260504230414 66 258 5.0 10.0 0.00 0.00 0.00 57
20260504230212 66 217 1.0 17.0 0.00 0.00 0.00 57
20260504230010 66 209 2.0 17.0 0.00 0.00 0.00 58
20260504225808 66 250 7.0 17.0 0.00 0.00 0.00 57
20260504225607 66 226 10.0 17.0 0.00 0.00 0.00 56
20260504225405 66 260 4.0 17.0 0.00 0.00 0.00 56
20260504225203 66 215 2.0 17.0 0.00 0.00 0.00 57
20260504225001 66 354 2.0 17.0 0.00 0.00 0.00 57
20260504224759 66 261 10.0 12.0 0.00 0.00 0.00 58
20260504224558 66 260 3.0 12.0 0.00 0.00 0.00 57
20260504224356 66 303 3.0 12.0 0.00 0.00 0.00 57
20260504224154 66 246 7.0 9.0 0.00 0.00 0.00 57
20260504223548 66 236 2.0 10.0 0.00 0.00 0.00 58
20260504223346 66 299 3.0 10.0 0.00 0.00 0.00 56
20260504223144 66 184 6.0 13.0 0.00 0.00 0.00 57
20260504222940 67 254 2.0 13.0 0.00 0.00 0.00 54
20260504222740 66 253 6.0 12.0 0.00 0.00 0.00 56
20260504222538 67 278 5.0 12.0 0.00 0.00 0.00 56
20260504222336 67 289 8.0 12.0 0.00 0.00 0.00 55
20260504222134 67 229 4.0 18.0 0.00 0.00 0.00 54
20260504221731 66 313 1.0 16.0 0.00 0.00 0.00 55
20260504221529 66 247 9.0 16.0 0.00 0.00 0.00 56
20260504221327 66 258 7.0 16.0 0.00 0.00 0.00 56
20260504221127 66 157 3.0 16.0 0.00 0.00 0.00 55
20260504220721 66 243 14.0 25.0 0.00 0.00 0.00 55
20260504220519 66 261 4.0 25.0 0.00 0.00 0.00 53
20260504220318 65 279 17.0 18.0 0.00 0.00 0.00 55
20260504215914 66 250 14.0 18.0 0.00 0.00 0.00 53
20260504215711 67 262 5.0 22.0 0.00 0.00 0.00 52
20260504215509 66 281 6.0 22.0 0.00 0.00 0.00 53
20260504215308 66 258 13.0 19.0 0.00 0.00 0.00 54
20260504215106 66 240 5.0 19.0 0.00 0.00 0.00 56
20260504214904 65 255 17.0 19.0 0.00 0.00 0.00 54
20260504214702 66 254 19.0 22.0 0.00 0.00 0.00 54
20260504214500 66 264 14.0 22.0 0.00 0.00 0.00 53
20260504214258 66 262 14.0 22.0 0.00 0.00 0.00 53
20260504214056 65 265 14.0 22.0 0.00 0.00 0.00 52
20260504213855 66 222 10.0 22.0 0.00 0.00 0.00 56
20260504213653 66 247 12.0 24.0 0.00 0.00 0.00 55
20260504213249 66 243 13.0 21.0 0.00 0.00 0.00 55
20260504213047 66 264 4.0 21.0 0.00 0.00 0.00 53
20260504212845 66 250 9.0 21.0 0.00 0.00 0.00 53
20260504212643 66 279 14.0 21.0 0.00 0.00 0.00 53
20260504212441 66 267 18.0 21.0 0.00 0.00 0.00 52
20260504212239 66 247 9.0 17.0 0.00 0.00 0.00 51
20260504212038 66 257 14.0 17.0 0.00 0.00 0.00 51
20260504211836 67 264 8.0 17.0 0.00 0.00 0.00 50
20260504211432 66 247 13.0 21.0 0.00 0.00 0.00 50
20260504211230 66 291 13.0 25.0 0.00 0.00 0.00 50
20260504211028 67 248 18.0 25.0 0.00 0.00 0.00 52
20260504210826 66 268 16.0 25.0 0.00 0.00 0.00 52
20260504210624 66 258 13.0 21.0 0.00 0.00 0.00 50
20260504210423 66 292 7.0 21.0 0.00 0.00 0.00 50
20260504210221 66 247 12.0 23.0 0.00 0.00 0.00 51
20260504210019 67 243 9.0 23.0 0.00 0.00 0.00 50
20260504205817 66 246 14.0 21.0 0.00 0.00 0.00 50
20260504205413 66 261 15.0 21.0 0.00 0.00 0.00 48
20260504205009 67 254 10.0 22.0 0.00 0.00 0.00 49
20260504204808 67 260 17.0 18.0 0.00 0.00 0.00 49
20260504204606 67 272 9.0 18.0 0.00 0.00 0.00 48
20260504204402 67 271 8.0 18.0 0.00 0.00 0.00 49
20260504204203 67 254 14.0 20.0 0.00 0.00 0.00 51
20260504203352 67 272 17.0 19.0 0.00 0.00 0.00 44
20260504203152 67 255 13.0 20.0 0.00 0.00 0.00 45
20260504202950 67 272 8.0 20.0 0.00 0.00 0.00 48
20260504202748 67 194 1.0 19.0 0.00 0.00 0.00 49
20260504202547 67 243 8.0 19.0 0.00 0.00 0.00 48
20260504202345 67 254 13.0 19.0 0.00 0.00 0.00 48
20260504202143 66 248 9.0 22.0 0.00 0.00 0.00 49
20260504201941 66 281 9.0 22.0 0.00 0.00 0.00 48
20260504201738 66 267 9.0 18.0 0.00 0.00 0.00 48
20260504201540 66 284 11.0 18.0 0.00 0.00 0.00 46
20260504201133 66 271 8.0 19.0 0.00 0.00 0.00 48
20260504200931 66 260 10.0 19.0 0.00 0.00 0.00 51
20260504200729 66 267 15.0 14.0 0.00 0.00 0.00 50
20260504200527 67 262 13.0 14.0 0.00 0.00 0.00 48
20260504200325 67 282 8.0 14.0 0.00 0.00 0.00 49
20260504200123 66 267 11.0 21.0 0.00 0.00 0.00 50
20260504195921 66 255 8.0 21.0 0.00 0.00 0.00 49
20260504195720 66 255 11.0 16.0 0.00 0.00 0.00 50
20260504195517 66 262 12.0 16.0 0.00 0.00 0.00 49
20260504195316 67 264 12.0 17.0 0.00 0.00 0.00 50
20260504194710 67 274 7.0 13.0 0.00 0.00 0.00 47
20260504194509 67 268 11.0 13.0 0.00 0.00 0.00 48
20260504194305 67 247 6.0 15.0 0.00 0.00 0.00 49
20260504194105 67 185 1.0 15.0 0.00 0.00 0.00 49
20260504193903 67 267 4.0 15.0 0.00 0.00 0.00 52
20260504193701 66 258 10.0 14.0 0.00 0.00 0.00 50
20260504193457 66 246 13.0 14.0 0.00 0.00 0.00 49
20260504193257 67 258 13.0 14.0 0.00 0.00 0.00 49
20260504193053 66 260 7.0 14.0 0.00 0.00 0.00 49
20260504192853 66 278 6.0 14.0 0.00 0.00 0.00 49
20260504192652 66 275 9.0 20.0 0.00 0.00 0.00 49
20260504192248 65 270 14.0 18.0 0.00 0.00 0.00 49
20260504192046 65 262 10.0 18.0 0.00 0.00 0.00 50
20260504191846 66 262 8.0 18.0 0.00 0.00 0.00 51
20260504191440 65 281 18.0 16.0 0.00 0.00 0.00 51
20260504191240 65 278 11.0 18.0 0.00 0.00 0.00 49
20260504191036 65 250 6.0 18.0 0.00 0.00 0.00 50
20260504190834 65 246 11.0 18.0 0.00 0.00 0.00 50
20260504190632 65 254 12.0 18.0 0.00 0.00 0.00 50
20260504190229 65 247 12.0 12.0 0.00 0.00 0.00 49
20260504190027 66 271 9.0 12.0 0.00 0.00 0.00 49
20260504185825 66 282 9.0 12.0 0.00 0.00 0.00 53
20260504185623 65 272 6.0 14.0 0.00 0.00 0.00 52
20260504185421 66 272 8.0 14.0 0.00 0.00 0.00 53
20260504185219 65 306 1.0 13.0 0.00 0.00 0.00 53
20260504184816 66 261 5.0 8.0 0.00 0.00 0.00 50
20260504184614 66 233 1.0 8.0 0.00 0.00 0.00 52
20260504184410 66 239 2.0 8.0 0.00 0.00 0.00 51
20260504184210 66 258 2.0 10.0 0.00 0.00 0.00 53
20260504184006 66 187 3.0 10.0 0.00 0.00 0.00 53
20260504183804 66 188 8.0 11.0 0.00 0.00 0.00 52
20260504183604 66 277 2.0 11.0 0.00 0.00 0.00 53
20260504183402 65 210 1.0 11.0 0.00 0.00 0.00 55
20260504183200 65 225 5.0 12.0 0.00 0.00 0.00 57
20260504182958 65 22 1.0 12.0 0.00 0.00 0.00 55
20260504182756 64 260 8.0 12.0 0.00 0.00 0.00 55
20260504182554 64 206 10.0 12.0 0.00 0.00 0.00 56
20260504182353 64 271 8.0 12.0 0.00 0.00 0.00 52
20260504182149 64 262 6.0 12.0 0.00 0.00 0.00 52
20260504181949 65 296 2.0 12.0 0.00 0.00 0.00 55
20260504181745 65 222 7.0 9.0 0.00 0.00 0.00 54
20260504181545 65 262 6.0 9.0 0.00 0.00 0.00 53
20260504181343 65 265 7.0 9.0 0.00 0.00 0.00 54
20260504181141 65 261 2.0 10.0 0.00 0.00 0.00 56
20260504180942 65 202 1.0 10.0 0.00 0.00 0.00 55
20260504180737 64 182 6.0 14.0 0.00 0.00 0.00 57
20260504180535 64 260 4.0 14.0 0.00 0.00 0.00 57
20260504180332 63 167 3.0 14.0 0.00 0.00 0.00 59
20260504180132 63 257 11.0 16.0 0.00 0.00 0.00 57
20260504175934 63 282 5.0 16.0 0.00 0.00 0.00 58
20260504175726 64 271 12.0 11.0 0.00 0.00 0.00 56
20260504175526 63 267 15.0 11.0 0.00 0.00 0.00 57
20260504175324 63 268 10.0 11.0 0.00 0.00 0.00 59
20260504175122 63 270 9.0 16.0 0.00 0.00 0.00 58
20260504174920 63 257 8.0 16.0 0.00 0.00 0.00 55
20260504174718 63 261 14.0 11.0 0.00 0.00 0.00 54
20260504174517 64 258 5.0 11.0 0.00 0.00 0.00 55
20260504174113 65 296 1.0 7.0 0.00 0.00 0.00 56
20260504173911 64 230 0.0 7.0 0.00 0.00 0.00 57
20260504173709 64 227 4.0 13.0 0.00 0.00 0.00 58
20260504173507 64 281 1.0 13.0 0.00 0.00 0.00 58
20260504173305 64 288 3.0 12.0 0.00 0.00 0.00 61
20260504173103 63 203 2.0 12.0 0.00 0.00 0.00 60
20260504172901 64 289 3.0 12.0 0.00 0.00 0.00 61
20260504172700 64 251 2.0 10.0 0.00 0.00 0.00 58
20260504172458 64 282 6.0 10.0 0.00 0.00 0.00 59
20260504172256 64 254 7.0 10.0 0.00 0.00 0.00 61
20260504172052 63 209 4.0 10.0 0.00 0.00 0.00 62
20260504171852 63 199 2.0 10.0 0.00 0.00 0.00 61
20260504171650 63 275 2.0 12.0 0.00 0.00 0.00 63
20260504171448 62 258 8.0 12.0 0.00 0.00 0.00 63
20260504171246 62 220 5.0 13.0 0.00 0.00 0.00 64
20260504171045 62 286 8.0 13.0 0.00 0.00 0.00 65
20260504170439 62 264 7.0 14.0 0.00 0.00 0.00 63
20260504170237 62 203 1.0 11.0 0.00 0.00 0.00 63
20260504160340 61 80 0.0 6.0 0.00 0.00 0.00 67
20260504160139 61 150 3.0 8.0 0.00 0.00 0.00 67
20260504151052 58 73 2.0 3.0 0.00 0.00 0.00 78
20260504150849 58 127 2.0 3.0 0.00 0.00 0.00 78
20260504150648 58 109 3.0 6.0 0.00 0.00 0.00 79
20260504150244 57 115 3.0 2.0 0.00 0.00 0.00 78
20260504141157 54 147 0.0 0.0 0.00 0.00 0.00 91
20260504140955 53 147 0.0 0.0 0.00 0.00 0.00 91
20260504140753 53 147 0.0 0.0 0.00 0.00 0.00 91
20260504140351 53 147 0.0 0.0 0.00 0.00 0.00 91
20260504130656 53 74 0.0 0.0 0.00 0.00 0.00 90
20260504130454 53 74 0.0 0.0 0.00 0.00 0.00 90
20260504130252 53 74 0.0 0.0 0.00 0.00 0.00 90
20260504120155 54 208 0.0 0.0 0.00 0.00 0.00 89
20260504110703 54 226 0.0 0.0 0.00 0.00 0.00 89
20260504110459 54 226 0.0 0.0 0.00 0.00 0.00 89
20260504110259 54 226 0.0 0.0 0.00 0.00 0.00 88
20260504100606 56 133 0.0 3.0 0.00 0.00 0.00 87
20260504100404 56 212 0.0 3.0 0.00 0.00 0.00 87
20260504100202 56 178 0.0 0.0 0.00 0.00 0.00 87
20260504081823 56 260 0.0 0.0 0.00 0.00 0.00 85
20260504081624 56 260 0.0 0.0 0.00 0.00 0.00 85
20260504081421 56 260 0.0 0.0 0.00 0.00 0.00 85
20260504081219 56 260 0.0 0.0 0.00 0.00 0.00 85
20260504081017 56 260 0.0 0.0 0.00 0.00 0.00 85
20260504080815 56 260 0.0 0.0 0.00 0.00 0.00 85
20260504080614 56 260 0.0 0.0 0.00 0.00 0.00 85
20260504080412 56 260 0.0 0.0 0.00 0.00 0.00 85
20260504080210 56 260 0.0 0.0 0.00 0.00 0.00 86
20260504060217 56 260 0.0 0.0 0.00 0.00 0.00 84
20260504050725 57 240 0.0 4.0 0.00 0.00 0.00 83
20260504050322 57 272 1.0 5.0 0.00 0.00 0.00 83
20260504050121 57 274 1.0 5.0 0.00 0.00 0.00 83
20260504045918 57 272 3.0 5.0 0.00 0.00 0.00 83
20260504045716 57 275 4.0 5.0 0.00 0.00 0.00 83
20260504045514 57 278 3.0 5.0 0.00 0.00 0.00 83
20260504045312 57 279 3.0 2.0 0.00 0.00 0.00 82
20260504045110 57 240 0.0 2.0 0.00 0.00 0.00 82
20260504044909 57 260 0.0 2.0 0.00 0.00 0.00 82
20260504044707 57 247 0.0 2.0 0.00 0.00 0.00 82
20260504044505 57 244 0.0 2.0 0.00 0.00 0.00 82
20260504044304 57 260 1.0 0.0 0.00 0.00 0.00 82
20260504044102 57 254 0.0 0.0 0.00 0.00 0.00 82
20260504043859 57 254 0.0 0.0 0.00 0.00 0.00 82
20260504043253 57 254 0.0 0.0 0.00 0.00 0.00 82
20260504043051 57 254 0.0 0.0 0.00 0.00 0.00 82
20260504042850 57 254 0.0 0.0 0.00 0.00 0.00 82
20260504042446 57 254 0.0 5.0 0.00 0.00 0.00 82
20260504042244 57 254 0.0 5.0 0.00 0.00 0.00 82
20260504041840 57 293 4.0 5.0 0.00 0.00 0.00 82
20260504041638 57 275 1.0 5.0 0.00 0.00 0.00 82
20260504041436 57 220 0.0 5.0 0.00 0.00 0.00 82
20260504041234 57 217 0.0 3.0 0.00 0.00 0.00 82
20260504041032 57 257 1.0 3.0 0.00 0.00 0.00 82
20260504040830 57 223 0.0 3.0 0.00 0.00 0.00 82
20260504040628 57 278 2.0 0.0 0.00 0.00 0.00 83
20260504040427 57 267 0.0 0.0 0.00 0.00 0.00 82
20260504040023 57 248 0.0 0.0 0.00 0.00 0.00 82
20260504035821 58 248 0.0 0.0 0.00 0.00 0.00 82
20260504035013 58 248 0.0 1.0 0.00 0.00 0.00 82
20260504034812 58 248 0.0 2.0 0.00 0.00 0.00 82
20260504034610 58 227 0.0 2.0 0.00 0.00 0.00 82
20260504034408 58 227 0.0 2.0 0.00 0.00 0.00 82
20260504034004 58 219 1.0 0.0 0.00 0.00 0.00 82
20260504033802 58 248 0.0 2.0 0.00 0.00 0.00 82
20260504033600 58 248 0.0 2.0 0.00 0.00 0.00 81
20260504033358 58 248 0.0 2.0 0.00 0.00 0.00 82
20260504033156 58 267 1.0 2.0 0.00 0.00 0.00 82
20260504032954 58 260 0.0 2.0 0.00 0.00 0.00 82
20260504032752 58 272 1.0 3.0 0.00 0.00 0.00 82
20260504032550 58 274 2.0 3.0 0.00 0.00 0.00 81
20260504032349 58 225 0.0 3.0 0.00 0.00 0.00 81
20260504032147 58 225 0.0 0.0 0.00 0.00 0.00 81
20260504031945 58 225 0.0 0.0 0.00 0.00 0.00 81
20260504031741 58 227 0.0 0.0 0.00 0.00 0.00 81
20260504031541 58 227 0.0 0.0 0.00 0.00 0.00 81
20260504031339 58 227 0.0 0.0 0.00 0.00 0.00 81
20260504031137 58 227 0.0 3.0 0.00 0.00 0.00 81
20260504030935 58 227 0.0 3.0 0.00 0.00 0.00 81
20260504030733 58 227 0.0 8.0 0.00 0.00 0.00 81
20260504030530 58 274 2.0 8.0 0.00 0.00 0.00 81
20260504030329 58 277 1.0 8.0 0.00 0.00 0.00 81
20260504030128 58 268 4.0 7.0 0.00 0.00 0.00 81
20260504025924 58 279 6.0 7.0 0.00 0.00 0.00 81
20260504025723 58 271 4.0 4.0 0.00 0.00 0.00 81
20260504025522 58 281 5.0 4.0 0.00 0.00 0.00 81
20260504025320 58 291 1.0 7.0 0.00 0.00 0.00 81
20260504024916 58 302 1.0 7.0 0.00 0.00 0.00 81
20260504024714 58 255 1.0 7.0 0.00 0.00 0.00 81
20260504024512 58 260 0.0 7.0 0.00 0.00 0.00 81
20260504024310 58 239 0.0 7.0 0.00 0.00 0.00 80
20260504024109 58 292 1.0 7.0 0.00 0.00 0.00 80
20260504023907 58 271 7.0 7.0 0.00 0.00 0.00 80
20260504023705 58 277 2.0 10.0 0.00 0.00 0.00 80
20260504023501 58 303 4.0 10.0 0.00 0.00 0.00 80
20260504023301 58 277 6.0 10.0 0.00 0.00 0.00 80
20260504023059 58 264 5.0 10.0 0.00 0.00 0.00 80
20260504022857 58 264 8.0 10.0 0.00 0.00 0.00 80
20260504022655 58 247 5.0 10.0 0.00 0.00 0.00 80
20260504022453 58 270 6.0 10.0 0.00 0.00 0.00 80
20260504022049 58 253 5.0 6.0 0.00 0.00 0.00 80
20260504021848 58 285 4.0 6.0 0.00 0.00 0.00 80
20260504021646 59 203 0.0 9.0 0.00 0.00 0.00 80
20260504021442 59 272 3.0 9.0 0.00 0.00 0.00 80
20260504020636 58 234 5.0 13.0 0.00 0.00 0.00 80
20260504020232 58 257 7.0 9.0 0.00 0.00 0.00 80
20260504015627 59 270 6.0 12.0 0.00 0.00 0.00 78
20260504015423 59 274 6.0 12.0 0.00 0.00 0.00 78
20260504015223 59 255 7.0 5.0 0.00 0.00 0.00 78
20260504015021 59 264 1.0 5.0 0.00 0.00 0.00 78
20260504014819 59 202 0.0 7.0 0.00 0.00 0.00 77
20260504014617 59 271 2.0 7.0 0.00 0.00 0.00 77
20260504014415 59 278 3.0 7.0 0.00 0.00 0.00 77
20260504014213 59 268 4.0 12.0 0.00 0.00 0.00 77
20260504014011 59 209 2.0 12.0 0.00 0.00 0.00 76
20260504013810 59 264 8.0 13.0 0.00 0.00 0.00 76
20260504013607 59 257 4.0 13.0 0.00 0.00 0.00 76
20260504013406 59 255 9.0 13.0 0.00 0.00 0.00 75
20260504013000 59 267 9.0 10.0 0.00 0.00 0.00 73
20260504012558 60 225 1.0 10.0 0.00 0.00 0.00 72
20260504012356 60 250 3.0 10.0 0.00 0.00 0.00 71
20260504012155 60 260 1.0 10.0 0.00 0.00 0.00 70
20260504011951 60 279 4.0 10.0 0.00 0.00 0.00 70
20260504011751 60 222 2.0 12.0 0.00 0.00 0.00 69
20260504011549 60 268 3.0 12.0 0.00 0.00 0.00 69
20260504011347 60 248 9.0 12.0 0.00 0.00 0.00 69
20260504011145 60 251 6.0 10.0 0.00 0.00 0.00 69
20260504010941 60 250 8.0 10.0 0.00 0.00 0.00 68
20260504010741 61 296 4.0 12.0 0.00 0.00 0.00 68
20260504010539 61 293 9.0 12.0 0.00 0.00 0.00 67
20260504010337 61 26 1.0 12.0 0.00 0.00 0.00 67
20260504010135 61 246 1.0 10.0 0.00 0.00 0.00 67
20260504005933 61 246 11.0 10.0 0.00 0.00 0.00 67
20260504005732 62 275 5.0 10.0 0.00 0.00 0.00 67
20260504005530 62 284 3.0 10.0 0.00 0.00 0.00 67
20260504005328 61 267 5.0 10.0 0.00 0.00 0.00 67
20260504005126 62 254 7.0 10.0 0.00 0.00 0.00 67
20260504004924 62 282 3.0 10.0 0.00 0.00 0.00 67
20260504004722 62 243 4.0 10.0 0.00 0.00 0.00 67
20260504004521 62 275 2.0 10.0 0.00 0.00 0.00 67
20260504004318 62 282 2.0 10.0 0.00 0.00 0.00 67
20260504004116 62 257 6.0 10.0 0.00 0.00 0.00 66
20260504003915 62 261 5.0 10.0 0.00 0.00 0.00 66
20260504003712 63 295 2.0 9.0 0.00 0.00 0.00 67
20260504003509 63 267 6.0 9.0 0.00 0.00 0.00 66
20260504003309 63 243 1.0 8.0 0.00 0.00 0.00 66
20260504003107 63 274 4.0 8.0 0.00 0.00 0.00 66
20260504002905 63 274 4.0 8.0 0.00 0.00 0.00 65
20260504002703 63 278 5.0 8.0 0.00 0.00 0.00 66
20260504002501 63 264 2.0 8.0 0.00 0.00 0.00 66
20260504002259 63 240 3.0 7.0 0.00 0.00 0.00 65
20260504002057 63 272 1.0 7.0 0.00 0.00 0.00 65
20260504001653 64 289 5.0 8.0 0.00 0.00 0.00 65
20260504001452 64 282 1.0 8.0 0.00 0.00 0.00 65
20260504001248 64 274 4.0 10.0 0.00 0.00 0.00 65
20260504001048 64 274 5.0 10.0 0.00 0.00 0.00 64
20260504000846 63 271 5.0 10.0 0.00 0.00 0.00 64
20260504000644 64 265 3.0 8.0 0.00 0.00 0.00 64
20260504000442 64 270 4.0 8.0 0.00 0.00 0.00 64
20260504000241 63 288 4.0 8.0 0.00 0.00 0.00 64
20260503235836 63 264 5.0 8.0 0.00 0.00 0.00 64
20260503235634 63 264 6.0 8.0 0.00 0.00 0.00 65
20260503235431 63 277 5.0 8.0 0.00 0.00 0.00 64
20260503235231 63 258 5.0 9.0 0.00 0.00 0.00 66
20260503235029 63 286 5.0 9.0 0.00 0.00 0.00 65
20260503234827 63 274 4.0 9.0 0.00 0.00 0.00 66
20260503234625 63 286 4.0 9.0 0.00 0.00 0.00 65
20260503234423 63 272 8.0 9.0 0.00 0.00 0.00 64
20260503234221 63 254 9.0 7.0 0.00 0.00 0.00 65
20260503234019 63 244 1.0 7.0 0.00 0.00 0.00 65
20260503233818 63 270 4.0 11.0 0.00 0.00 0.00 66
20260503233616 63 253 2.0 11.0 0.00 0.00 0.00 66
20260503233414 63 202 0.0 11.0 0.00 0.00 0.00 65
20260503233212 63 264 11.0 8.0 0.00 0.00 0.00 65
20260503233008 63 262 8.0 8.0 0.00 0.00 0.00 65
20260503232808 63 262 4.0 9.0 0.00 0.00 0.00 64
20260503232606 63 271 6.0 9.0 0.00 0.00 0.00 65
20260503232202 63 262 7.0 9.0 0.00 0.00 0.00 65
20260503232000 63 292 4.0 9.0 0.00 0.00 0.00 66